Flag for U.S.A. Weather past 2 weeks in Fullerton, California, U.S.A.

Now
55 °F

Sunny.


Feels Like: 55 °F
Forecast: 46 / 71 °F
Wind: 3 mph from North

Location: Fullerton Municipal Airport

Current Time: Mar 4, 2015 at 8:23:37 AM

Latest Report: Mar 4, 2015 at 7:53 AM


Visibility: 10 mi

Pressure: 30.04 "Hg

Humidity: 69%

Dew point: 45 °F

Location of FullertonLocation

Historic Weather in Fullerton — Graph

°F

Fullerton temperature yesterday

Maximum temperature yesterday: 67 °F (at 1:53 PM)
Minimum temperature yesterday: 45 °F (at 5:53 AM)
Average temperature yesterday: 56 °F

Past Weeks' High & Low Weather Summary

 TemperatureHumidityPressure
High75 °F (Feb 24, 2:53 PM)93% (Feb 23, 3:53 AM)30.23 "Hg (Feb 23, 3:53 AM)
Low45 °F (Feb 24, 5:53 AM)13% (Feb 24, 2:53 PM)29.75 "Hg (Feb 27, 4:53 PM)
Average59 °F67%29.97 "Hg
* Reported Feb 17 6:53 AM — Mar 4 6:53 AM, Fullerton, Weather by CustomWeather, © 2015

Note: Actual official high and low records may vary slightly from our data, if they occured in-between our weather recording intervals... More about our weather records

Advertising

Fullerton weather history for previous 24 hours

 ConditionsComfort  
Time TempWeatherWind HumidityBarometerVisibility
6:53 AM
Wed, Mar 4
48 °FSunny.No wind80%30.01 "Hg10 mi
5:53 AM47 °FClear.No wind80%30.00 "Hg10 mi
4:53 AM48 °FClear.3 mph80%29.98 "Hg10 mi
3:53 AM49 °FClear.6 mph77%29.96 "Hg10 mi
2:53 AM49 °FClear.No wind84%29.96 "Hg10 mi
1:53 AM50 °FClear.No wind80%29.97 "Hg10 mi
12:53 AM51 °FClear.3 mph77%29.96 "Hg10 mi
11:53 PM
Tue, Mar 3
52 °FClear.No wind77%29.95 "Hg10 mi
10:53 PM53 °FClear.3 mph74%29.95 "Hg10 mi
9:53 PM55 °FClear.3 mph72%29.94 "Hg10 mi
8:53 PM57 °FClear.No wind69%29.92 "Hg10 mi
7:53 PM58 °FClear.3 mph67%29.91 "Hg10 mi
6:53 PM59 °FClear.6 mph56%29.90 "Hg10 mi
5:53 PM60 °FClear.5 mph52%29.88 "Hg10 mi
4:53 PM63 °FSunny.7 mph47%29.87 "Hg10 mi
3:53 PM66 °FSunny.8 mph39%29.86 "Hg10 mi
2:53 PM66 °FSunny.9 mph39%29.87 "Hg10 mi
1:53 PM67 °FSunny.9 mph39%29.88 "Hg10 mi
12:53 PM66 °FSunny.5 mph32%29.90 "Hg10 mi
11:53 AM66 °FSunny.N/A34%29.93 "Hg10 mi
10:53 AM63 °FSunny.N/A40%29.95 "HgN/A
9:53 AM61 °FSunny.No wind48%29.96 "Hg10 mi
8:53 AM58 °FSunny.No wind56%29.97 "Hg10 mi
Weather by CustomWeather, © 2015

See weather overviewHow to use our weather pages